Location: Boulin
(43.2500°N, 0.1333°E)
Time: 21:21:06
(UTC+00:00)

OceanSat 1 rocket - Pass Details

Date: 11 December 2025
Orbit: 688 x 726 km, 98.6° (Epoch: 21 January)

Event Time Altitude Azimuth Distance (km) Brightness Sun altitude
Rises 18:27:03 0° 159° (SSE) 3,084 7.8 -21.6°
Reaches altitude 10° 18:29:18 10° 157° (SSE) 2,165 7.0 -22.0°
Maximum altitude 18:34:01 72° 74° (ENE) 739 4.4 -22.8°
Drops below altitude 10° 18:38:43 10° 350° (N) 2,160 7.1 -23.7°
Sets 18:40:58 0° 349° (N) 3,077 8.0 -24.1°
